• In Czech Republic
  • List of Countries
  • For 7 days
  • Water Temperature
  • Satellite Maps
  • Weather Map
  • Weather Widgets
  • user-avatar
    Login

    Hourly Weather Armagh

    Today, 16 December, Saturday

    Time Temperature Precipitation Wind Pressure Humidity
    00:00 +1°C° 0 mm 3 mps 757 mmHg 85%
    01:00 +1°C° 0 mm 3 mps 757 mmHg 86%
    02:00 +1°C° 0 mm 3 mps 757 mmHg 86%
    03:00 0°C° 0 mm 4 mps 758 mmHg 87%
    04:00 +1°C° 0 mm 4 mps 758 mmHg 87%
    05:00 +1°C° 0 mm 4 mps 758 mmHg 87%
    06:00 +2°C° 0 mm 5 mps 758 mmHg 87%
    07:00 +2°C° 0 mm 5 mps 758 mmHg 88%
    08:00 +3°C° 0 mm 4 mps 758 mmHg 89%
    09:00 +3°C° 0 mm 4 mps 758 mmHg 90%
    10:00 +4°C° 0 mm 4 mps 759 mmHg 88%
    11:00 +5°C° 0 mm 4 mps 759 mmHg 85%
    12:00 +5°C° 0 mm 3 mps 759 mmHg 83%
    13:00 +5°C° 0 mm 3 mps 760 mmHg 84%
    14:00 +5°C° 0 mm 3 mps 760 mmHg 85%
    15:00 +5°C° 0 mm 3 mps 760 mmHg 86%
    16:00 +5°C° 0 mm 3 mps 760 mmHg 89%
    17:00 +5°C° 0 mm 2 mps 761 mmHg 91%
    18:00 +5°C° 0 mm 2 mps 761 mmHg 94%
    19:00 +5°C° 0 mm 2 mps 761 mmHg 94%
    20:00 +5°C° 0 mm 2 mps 761 mmHg 94%
    21:00 +5°C° 0 mm 2 mps 761 mmHg 95%
    22:00 +5°C° 0.1 mm 2 mps 761 mmHg 94%
    23:00 +4°C° 0.1 mm 3 mps 761 mmHg 94%

    Tomorrow, 17 December, Sunday

    Time Temperature Precipitation Wind Pressure Humidity
    00:00 +5°C° 0.1 mm 3 mps 760 mmHg 94%
    01:00 +5°C° 0.3 mm 4 mps 760 mmHg 94%
    02:00 +6°C° 0.3 mm 4 mps 760 mmHg 94%
    03:00 +6°C° 0.3 mm 5 mps 760 mmHg 95%
    04:00 +7°C° 0.4 mm 5 mps 759 mmHg 94%
    05:00 +7°C° 0.4 mm 5 mps 758 mmHg 94%
    06:00 +8°C° 0.4 mm 6 mps 758 mmHg 93%
    07:00 +8°C° 0.2 mm 6 mps 758 mmHg 93%
    08:00 +8°C° 0.2 mm 6 mps 757 mmHg 93%
    09:00 +9°C° 0.2 mm 5 mps 757 mmHg 93%
    10:00 +9°C° 0.1 mm 5 mps 758 mmHg 93%
    11:00 +9°C° 0.1 mm 5 mps 758 mmHg 93%
    12:00 +10°C° 0.1 mm 5 mps 759 mmHg 93%
    13:00 +9°C° 0 mm 5 mps 759 mmHg 91%
    14:00 +8°C° 0 mm 4 mps 759 mmHg 89%
    15:00 +8°C° 0 mm 4 mps 759 mmHg 87%
    16:00 +7°C° 0 mm 4 mps 760 mmHg 88%
    17:00 +7°C° 0 mm 3 mps 761 mmHg 90%
    18:00 +6°C° 0 mm 2 mps 761 mmHg 91%
    19:00 +6°C° 0 mm 2 mps 762 mmHg 92%
    20:00 +5°C° 0 mm 2 mps 763 mmHg 92%
    21:00 +5°C° 0 mm 2 mps 763 mmHg 93%
    22:00 +5°C° 0 mm 2 mps 764 mmHg 93%
    23:00 +6°C° 0 mm 1 mps 764 mmHg 93%

    Day after tomorrow, 18 December, Monday

    Time Temperature Precipitation Wind Pressure Humidity
    00:00 +6°C° 0 mm 1 mps 764 mmHg 93%
    01:00 +5°C° 0 mm 1 mps 764 mmHg 93%
    02:00 +5°C° 0 mm 1 mps 764 mmHg 93%
    03:00 +5°C° 0 mm 1 mps 764 mmHg 93%
    04:00 +5°C° 0 mm 1 mps 764 mmHg 93%
    05:00 +4°C° 0 mm 2 mps 764 mmHg 94%
    06:00 +4°C° 0 mm 2 mps 765 mmHg 94%
    07:00 +4°C° 0 mm 2 mps 765 mmHg 94%
    08:00 +4°C° 0 mm 2 mps 765 mmHg 95%
    09:00 +5°C° 0 mm 2 mps 765 mmHg 95%
    10:00 +5°C° 0 mm 3 mps 765 mmHg 95%
    11:00 +7°C° 0 mm 3 mps 765 mmHg 94%
    12:00 +9°C° 0 mm 3 mps 765 mmHg 94%
    13:00 +9°C° 0 mm 3 mps 765 mmHg 95%
    14:00 +9°C° 0 mm 3 mps 765 mmHg 96%
    15:00 +9°C° 0 mm 3 mps 765 mmHg 97%
    16:00 +10°C° 0 mm 3 mps 765 mmHg 97%
    17:00 +10°C° 0 mm 2 mps 765 mmHg 97%
    18:00 +10°C° 0 mm 2 mps 765 mmHg 98%
    19:00 +10°C° 0 mm 2 mps 765 mmHg 98%
    20:00 +10°C° 0 mm 3 mps 766 mmHg 98%
    21:00 +11°C° 0 mm 3 mps 766 mmHg 98%
    22:00 +11°C° 0.1 mm 3 mps 766 mmHg 97%
    23:00 +11°C° 0.1 mm 3 mps 766 mmHg 97%

    19 December, Tuesday

    Time Temperature Precipitation Wind Pressure Humidity
    00:00 +11°C° 0.1 mm 3 mps 766 mmHg 97%
    01:00 +11°C° 0 mm 3 mps 766 mmHg 97%
    02:00 +11°C° 0 mm 3 mps 766 mmHg 97%
    03:00 +11°C° 0 mm 3 mps 766 mmHg 96%
    04:00 +11°C° 0 mm 3 mps 766 mmHg 96%
    05:00 +10°C° 0 mm 3 mps 766 mmHg 96%
    06:00 +10°C° 0 mm 3 mps 765 mmHg 96%
    07:00 +10°C° 0 mm 4 mps 766 mmHg 96%
    08:00 +10°C° 0 mm 4 mps 766 mmHg 96%
    09:00 +10°C° 0 mm 4 mps 766 mmHg 95%
    10:00 +11°C° 0 mm 4 mps 766 mmHg 94%
    11:00 +10°C° 0 mm 5 mps 766 mmHg 92%
    12:00 +12°C° 0 mm 5 mps 766 mmHg 91%
    13:00 +12°C° 0 mm 5 mps 766 mmHg 91%
    14:00 +13°C° 0 mm 5 mps 766 mmHg 91%
    15:00 +13°C° 0 mm 5 mps 765 mmHg 91%
    16:00 +13°C° 0.1 mm 5 mps 765 mmHg 91%
    17:00 +13°C° 0.1 mm 5 mps 766 mmHg 91%
    18:00 +12°C° 0.1 mm 5 mps 766 mmHg 91%
    19:00 +12°C° 0.1 mm 5 mps 766 mmHg 92%
    20:00 +12°C° 0.1 mm 4 mps 767 mmHg 92%
    21:00 +11°C° 0.1 mm 4 mps 768 mmHg 93%
    22:00 +10°C° 0 mm 3 mps 768 mmHg 94%
    23:00 +9°C° 0 mm 3 mps 769 mmHg 95%

    20 December, Wednesday

    Time Temperature Precipitation Wind Pressure Humidity
    00:00 +8°C° 0 mm 2 mps 769 mmHg 96%
    01:00 +8°C° 0 mm 2 mps 770 mmHg 96%
    02:00 +9°C° 0 mm 1 mps 770 mmHg 95%
    03:00 +8°C° 0 mm 1 mps 770 mmHg 95%
    04:00 +8°C° 0.1 mm 1 mps 770 mmHg 95%
    05:00 +8°C° 0.1 mm 1 mps 770 mmHg 95%
    06:00 +9°C° 0.1 mm 1 mps 770 mmHg 94%
    07:00 +8°C° 0 mm 1 mps 770 mmHg 94%
    08:00 +8°C° 0 mm 1 mps 770 mmHg 95%
    09:00 +7°C° 0 mm 2 mps 770 mmHg 95%
    10:00 +8°C° 0.6 mm 2 mps 770 mmHg 95%
    11:00 +8°C° 0.6 mm 3 mps 769 mmHg 95%
    12:00 +9°C° 0.6 mm 3 mps 769 mmHg 95%
    13:00 +8°C° 0.6 mm 4 mps 768 mmHg 94%
    14:00 +9°C° 0.6 mm 5 mps 767 mmHg 93%
    15:00 +10°C° 0.6 mm 5 mps 766 mmHg 92%
    16:00 +10°C° 0.2 mm 6 mps 766 mmHg 92%
    17:00 +10°C° 0.2 mm 6 mps 766 mmHg 92%
    18:00 +10°C° 0.2 mm 6 mps 765 mmHg 91%
    19:00 +10°C° 0.3 mm 6 mps 765 mmHg 92%
    20:00 +11°C° 0.3 mm 6 mps 766 mmHg 92%
    21:00 +11°C° 0.3 mm 6 mps 766 mmHg 93%
    22:00 +12°C° 0.4 mm 5 mps 766 mmHg 93%
    23:00 +10°C° 0.4 mm 5 mps 767 mmHg 93%

    21 December, Thursday

    Time Temperature Precipitation Wind Pressure Humidity
    00:00 +11°C° 0.4 mm 4 mps 767 mmHg 93%
    01:00 +10°C° 0.1 mm 4 mps 767 mmHg 94%
    02:00 +10°C° 0.1 mm 4 mps 768 mmHg 94%
    03:00 +8°C° 0.1 mm 4 mps 769 mmHg 94%
    04:00 +8°C° 0 mm 3 mps 769 mmHg 94%
    05:00 +8°C° 0 mm 3 mps 770 mmHg 94%
    06:00 +7°C° 0 mm 3 mps 770 mmHg 95%
    07:00 +7°C° 0 mm 3 mps 771 mmHg 94%
    08:00 +6°C° 0 mm 2 mps 772 mmHg 94%
    09:00 +6°C° 0 mm 2 mps 772 mmHg 93%
    10:00 +6°C° 0 mm 2 mps 772 mmHg 91%
    11:00 +7°C° 0 mm 2 mps 773 mmHg 89%
    12:00 +7°C° 0 mm 2 mps 773 mmHg 87%
    13:00 +8°C° 0 mm 1 mps 773 mmHg 88%
    14:00 +8°C° 0 mm 1 mps 773 mmHg 88%
    15:00 +8°C° 0 mm 1 mps 773 mmHg 89%
    16:00 +7°C° 0 mm 1 mps 773 mmHg 90%
    17:00 +7°C° 0 mm 1 mps 773 mmHg 91%
    18:00 +6°C° 0 mm 1 mps 773 mmHg 92%
    19:00 +6°C° 0 mm 1 mps 773 mmHg 92%
    20:00 +6°C° 0 mm 1 mps 772 mmHg 93%
    21:00 +5°C° 0 mm 2 mps 772 mmHg 93%
    22:00 +6°C° 0.2 mm 2 mps 771 mmHg 94%
    23:00 +6°C° 0.2 mm 2 mps 771 mmHg 95%
    Show more